Location: Chiroubles
(46.1812°N, 4.6660°E)
Time: 23:15:26
(UTC+00:00)

S-56A Canister/Altair - Visible Passes

Search period start: 05 December 2020 00:00
Search period end: 15 December 2020 00:00
Orbit: 632 x 2500 km, 38.9° (Epoch: 05 December)

Date Brightness Start Highest point End Pass type
(mag) Time Alt. Az. Time Alt. Az. Time Alt. Az.
05 Dec 9.6 18:02:39 10° WSW 18:15:39 55° S 18:20:27 33° ESE visible
05 Dec 9.7 20:09:08 10° W 20:17:52 45° SW 20:17:52 45° SW visible
06 Dec 9.9 17:29:02 10° WSW 17:42:27 54° SSE 17:49:31 22° E visible
06 Dec 9.3 19:35:25 10° W 19:46:56 56° SSW 19:46:56 56° SSW visible
06 Dec 11.0 21:42:25 10° W 21:44:22 15° W 21:44:22 15° W visible
07 Dec 10.1 16:55:27 10° SW 17:09:12 53° SSE 17:18:36 13° E visible
07 Dec 9.2 19:01:40 10° W 19:14:20 59° S 19:16:01 54° SSE visible
07 Dec 10.6 21:08:41 10° W 21:13:27 24° WSW 21:13:27 24° WSW visible
08 Dec 10.3 16:21:56 10° SW 16:35:54 51° SSE 16:46:39 10° E visible
08 Dec 9.5 18:27:55 10° WSW 18:41:12 60° S 18:45:06 41° SE visible
08 Dec 10.1 20:34:55 10° W 20:42:32 35° WSW 20:42:32 35° WSW visible
09 Dec 9.7 17:54:11 10° WSW 18:08:00 61° S 18:14:13 28° ESE visible
09 Dec 9.7 20:01:08 10° W 20:11:39 46° SW 20:11:39 46° SW visible
10 Dec 9.9 17:20:29 10° WSW 17:34:43 62° S 17:43:22 18° ESE visible
10 Dec 9.5 19:27:21 10° W 19:39:42 51° SSW 19:40:47 50° S visible
10 Dec 11.0 21:35:09 10° W 21:38:14 17° WSW 21:38:14 17° WSW visible
11 Dec 10.1 16:46:50 10° WSW 17:01:21 62° S 17:12:25 10° E visible
11 Dec 9.6 18:53:33 10° W 19:06:38 55° SSW 19:09:58 42° SSE visible
11 Dec 10.6 21:01:09 10° W 21:07:25 25° WSW 21:07:25 25° WSW visible
12 Dec 10.3 16:13:14 10° WSW 16:27:57 61° S 16:39:36 10° E visible
12 Dec 9.8 18:19:46 10° W 18:33:28 58° SSW 18:39:13 30° SE visible
12 Dec 10.3 20:27:12 10° W 20:36:39 32° SW 20:36:39 32° SW visible
13 Dec 10.0 17:46:01 10° W 18:00:12 60° SSW 18:08:31 20° ESE visible
13 Dec 10.0 19:53:18 10° W 20:04:36 37° SW 20:05:57 36° SSW visible
14 Dec 10.1 17:12:19 10° W 17:26:53 62° S 17:37:53 10° ESE visible
14 Dec 10.0 19:19:25 10° W 19:31:38 41° SSW 19:35:20 32° S visible
14 Dec 11.1 21:29:13 10° W 21:32:48 14° WSW 21:32:48 14° WSW visible
